Waupaca, WI

10:46 PM CDT on October 21, 2017 (GMT -0500)
Waupaca Municipal

Weather History for KPCZ - May, 2014

Change the Weather History Date:

Thursday, May 1, 2014

  Actual Average Record
Temperature  
Mean Temperature 48 °F -  
Max Temperature 53 °F 63 °F 88 °F (1952)
Min Temperature 42 °F 40 °F 24 °F (1963)
Degree Days  
Heating Degree Days 18    
Moisture  
Dew Point 40 °F    
Average Humidity 75    
Maximum Humidity 87    
Minimum Humidity 58    
Precipitation  
Precipitation 0.00 in - - ()
Sea Level Pressure  
Sea Level Pressure 29.67 in    
Wind  
Wind Speed 4 mph (West)    
Max Wind Speed 14 mph    
Max Gust Speed 17 mph    
Visibility 10 miles    
Events Rain    
Averages and records for this station are not official NWS values.
T = Trace of Precipitation, MM = Missing Value Source: NWS Daily Summary

Daily Weather History Graph

Daily Weather History Graph

Search for Another Location

Airport or City:

Trip Planner

Search our weather history database for the weather conditions in past years. The results will help you decide how hot, cold, wet, or windy it might be!

Date:

Astronomy

May. 01, 2014 Rise Set
Actual Time 5:46 AM CDT 8:00 PM CDT
Civil Twilight 5:15 AM CDT 8:32 PM CDT
Nautical Twilight 4:35 AM CDT 9:11 PM CDT
Astronomical Twilight 3:51 AM CDT 9:55 PM CDT
Moon 7:32 AM CDT (5/1) 10:35 PM CDT (5/1)
Length of Visible Light 15h 17m
Length of Day
14h 13m
Waxing Crescent, 7% of the Moon is Illuminated
May 1
Waxing Crescent
May 6
First Quarter
May 14
Full
May 21
Last Quarter
May 28
New

Hourly Weather History & Observations

Time (CDT) Temp. Windchill Dew Point Humidity Pressure Visibility Wind Dir Wind Speed Gust Speed Precip Events Conditions
12:37 AM 44.6 °F 43.1 °F 39.2 °F 81% 29.68 in 10.0 mi SSE 3.5 mph - N/A   Overcast
1:17 AM 44.6 °F 43.1 °F 39.2 °F 81% 29.68 in 10.0 mi SSE 3.5 mph - N/A   Overcast
1:37 AM 44.6 °F - 39.2 °F 81% 29.67 in 10.0 mi Calm Calm - N/A Rain Light Rain
1:57 AM 44.6 °F 43.1 °F 39.2 °F 81% 29.67 in 10.0 mi SSE 3.5 mph - N/A   Overcast
2:17 AM 42.8 °F 41.1 °F 39.2 °F 87% 29.66 in 10.0 mi SSE 3.5 mph - N/A   Overcast
2:37 AM 42.8 °F 41.1 °F 39.2 °F 87% 29.65 in 10.0 mi SSE 3.5 mph - N/A   Overcast
2:57 AM 42.8 °F 40.1 °F 39.2 °F 87% 29.64 in 10.0 mi SE 4.6 mph - N/A   Overcast
3:17 AM 42.8 °F 40.1 °F 39.2 °F 87% 29.64 in 10.0 mi SSE 4.6 mph - N/A   Overcast
3:37 AM 42.8 °F - 39.2 °F 87% 29.64 in 10.0 mi Calm Calm - N/A   Overcast
3:58 AM 42.8 °F 41.1 °F 39.2 °F 87% 29.64 in 10.0 mi SSE 3.5 mph - N/A   Overcast
4:18 AM 42.8 °F 40.1 °F 39.2 °F 87% 29.63 in 10.0 mi SSE 4.6 mph - N/A   Overcast
4:37 AM 42.8 °F 41.1 °F 39.2 °F 87% 29.63 in 10.0 mi SSE 3.5 mph - N/A   Overcast
5:17 AM 42.8 °F - 39.2 °F 87% 29.62 in 10.0 mi Calm Calm - N/A   Overcast
5:37 AM 42.8 °F - 39.2 °F 87% 29.62 in 10.0 mi Calm Calm - N/A   Overcast
6:17 AM 42.8 °F - 39.2 °F 87% 29.62 in 10.0 mi Calm Calm - N/A   Overcast
6:38 AM 42.8 °F - 39.2 °F 87% 29.62 in 10.0 mi Calm Calm - N/A   Overcast
6:58 AM 42.8 °F - 39.2 °F 87% 29.62 in 10.0 mi Calm Calm - N/A   Overcast
7:17 AM 42.8 °F - 39.2 °F 87% 29.62 in 10.0 mi Calm Calm - N/A   Overcast
7:37 AM 42.8 °F - 39.2 °F 87% 29.63 in 10.0 mi Calm Calm - N/A   Overcast
7:57 AM 42.8 °F - 39.2 °F 87% 29.63 in 10.0 mi Calm Calm - N/A   Overcast
8:17 AM 44.6 °F - 39.2 °F 81% 29.63 in 10.0 mi Calm Calm - N/A   Overcast
8:37 AM 44.6 °F - 39.2 °F 81% 29.63 in 10.0 mi Calm Calm - N/A   Overcast
9:00 AM 44.6 °F - 39.2 °F 81% 29.63 in 10.0 mi Calm Calm - N/A   Overcast
9:17 AM 44.6 °F - 39.2 °F 81% 29.63 in 10.0 mi Calm Calm - N/A   Overcast
9:57 AM 44.6 °F - 37.4 °F 76% 29.63 in 10.0 mi Calm Calm - N/A   Overcast
10:38 AM 46.4 °F 45.2 °F 37.4 °F 71% 29.64 in 10.0 mi SW 3.5 mph - N/A   Overcast
10:59 AM 48.2 °F - 37.4 °F 66% 29.64 in 10.0 mi Calm Calm - N/A   Overcast
11:17 AM 48.2 °F - 37.4 °F 66% 29.64 in 10.0 mi SW 3.5 mph - N/A   Overcast
11:37 AM 50.0 °F - 37.4 °F 62% 29.64 in 10.0 mi WSW 4.6 mph - N/A   Overcast
11:57 AM 50.0 °F - 37.4 °F 62% 29.64 in 10.0 mi Calm Calm - N/A   Overcast
12:17 PM 50.0 °F - 37.4 °F 62% 29.64 in 10.0 mi WSW 3.5 mph - N/A   Overcast
12:37 PM 51.8 °F - 37.4 °F 58% 29.64 in 10.0 mi West 3.5 mph - N/A   Overcast
12:57 PM 50.0 °F - 37.4 °F 62% 29.64 in 10.0 mi West 10.4 mph - N/A   Overcast
1:17 PM 48.2 °F - 39.2 °F 71% 29.64 in 10.0 mi Calm Calm - N/A Rain Light Rain
1:37 PM 51.8 °F - 39.2 °F 62% 29.64 in 10.0 mi NNE 3.5 mph - N/A   Overcast
1:57 PM 50.0 °F - 39.2 °F 66% 29.65 in 7.0 mi WNW 3.5 mph - N/A Rain Light Rain
2:17 PM 50.0 °F - 39.2 °F 66% 29.65 in 10.0 mi North 3.5 mph - N/A   Overcast
2:37 PM 51.8 °F - 39.2 °F 62% 29.65 in 10.0 mi SW 3.5 mph - N/A   Mostly Cloudy
2:57 PM 51.8 °F - 39.2 °F 62% 29.65 in 10.0 mi SW 5.8 mph - N/A   Overcast
3:17 PM 51.8 °F - 39.2 °F 62% 29.66 in 10.0 mi West 5.8 mph - N/A   Overcast
3:38 PM 53.6 °F - 39.2 °F 58% 29.66 in 10.0 mi WNW 5.8 mph - N/A   Overcast
4:17 PM 51.8 °F - 39.2 °F 62% 29.67 in 10.0 mi NW 9.2 mph - N/A   Light Drizzle
4:37 PM 51.8 °F - 41.0 °F 67% 29.67 in 10.0 mi NW 6.9 mph - N/A   Mostly Cloudy
4:58 PM 51.8 °F - 41.0 °F 67% 29.68 in 10.0 mi WNW 6.9 mph - N/A   Overcast
5:17 PM 53.6 °F - 41.0 °F 62% 29.68 in 10.0 mi NW 6.9 mph - N/A   Overcast
5:37 PM 51.8 °F - 41.0 °F 67% 29.68 in 10.0 mi WNW 6.9 mph - N/A   Overcast
5:57 PM 51.8 °F - 41.0 °F 67% 29.68 in 10.0 mi West 9.2 mph - N/A   Overcast
6:18 PM 51.8 °F - 42.8 °F 71% 29.69 in 10.0 mi West 11.5 mph - N/A   Overcast
6:37 PM 51.8 °F - 42.8 °F 71% 29.69 in 10.0 mi WNW 9.2 mph - N/A   Overcast
6:57 PM 51.8 °F - 42.8 °F 71% 29.70 in 10.0 mi West 12.7 mph - N/A   Overcast
7:17 PM 50.0 °F - 42.8 °F 76% 29.71 in 10.0 mi WNW 6.9 mph - N/A   Overcast
7:57 PM 50.0 °F - 42.8 °F 76% 29.71 in 10.0 mi WNW 9.2 mph 16.1 mph N/A   Overcast
8:17 PM 48.2 °F - 42.8 °F 82% 29.72 in 10.0 mi NW 8.1 mph - N/A   Overcast
8:37 PM 48.2 °F - 41.0 °F 76% 29.72 in 10.0 mi NW 12.7 mph - N/A   Overcast
8:58 PM 48.2 °F - 41.0 °F 76% 29.73 in 10.0 mi NW 13.8 mph 17.3 mph N/A   Overcast
9:18 PM 48.2 °F - 41.0 °F 76% 29.73 in 10.0 mi NW 11.5 mph - N/A   Overcast
9:38 PM 48.2 °F - 42.8 °F 82% 29.74 in 10.0 mi NW 10.4 mph - N/A   Overcast
9:58 PM 48.2 °F - 41.0 °F 76% 29.74 in 10.0 mi WNW 6.9 mph - N/A   Overcast
10:18 PM 48.2 °F - 41.0 °F 76% 29.75 in 10.0 mi WNW 8.1 mph - N/A   Overcast
10:38 PM 48.2 °F - 39.2 °F 71% 29.75 in 10.0 mi NW 8.1 mph - N/A   Overcast
10:58 PM 46.4 °F 42.9 °F 39.2 °F 76% 29.75 in 10.0 mi NW 6.9 mph - N/A   Overcast
11:17 PM 46.4 °F 42.9 °F 39.2 °F 76% 29.75 in 10.0 mi WNW 6.9 mph - N/A   Overcast
11:37 PM 46.4 °F 42.4 °F 39.2 °F 76% 29.75 in 10.0 mi NW 8.1 mph - N/A   Overcast
11:57 PM 46.4 °F 42.9 °F 39.2 °F 76% 29.76 in 10.0 mi WNW 6.9 mph - N/A   Overcast